When you browse on this site, cookies collect data to enhance your experience and personalize the content and advertising you see.
Visit our Privacy Policy to learn more. By continuing to use the site, you agree to this use of cookies and data.
  • In Hungary
  • List of Countries
  • For 7 days
  • Water Temperature
  • Satellite Maps
  • Weather Map
  • News
  • Weather Widgets
  • user-avatar
    Login

    Hourly Weather Alges

    Today, 21 July, Sunday

    Time Temperature Precipitation Wind Pressure Humidity
    00:00 +19°C° 0 mm 5 mps 762 mmHg 80%
    01:00 +17°C° 0 mm 5 mps 762 mmHg 82%
    02:00 +17°C° 0 mm 6 mps 762 mmHg 85%
    03:00 +17°C° 0 mm 5 mps 762 mmHg 85%
    04:00 +17°C° 0 mm 5 mps 762 mmHg 85%
    05:00 +17°C° 0 mm 5 mps 762 mmHg 85%
    06:00 +20°C° 0 mm 5 mps 762 mmHg 77%
    07:00 +22°C° 0 mm 5 mps 762 mmHg 68%
    08:00 +23°C° 0 mm 6 mps 762 mmHg 59%
    09:00 +26°C° 0 mm 6 mps 762 mmHg 53%
    10:00 +28°C° 0 mm 6 mps 762 mmHg 47%
    11:00 +30°C° 0 mm 6 mps 762 mmHg 41%
    12:00 +30°C° 0 mm 6 mps 762 mmHg 42%
    13:00 +30°C° 0 mm 7 mps 761 mmHg 43%
    14:00 +31°C° 0 mm 8 mps 761 mmHg 43%
    15:00 +29°C° 0 mm 8 mps 761 mmHg 46%
    16:00 +27°C° 0 mm 8 mps 761 mmHg 49%
    17:00 +26°C° 0 mm 8 mps 761 mmHg 52%
    18:00 +23°C° 0 mm 7 mps 761 mmHg 59%
    19:00 +22°C° 0 mm 6 mps 762 mmHg 65%
    20:00 +20°C° 0 mm 6 mps 762 mmHg 71%
    21:00 +20°C° 0 mm 5 mps 762 mmHg 74%
    22:00 +19°C° 0 mm 5 mps 762 mmHg 77%
    23:00 +19°C° 0 mm 5 mps 762 mmHg 81%

    Tomorrow, 22 July, Monday

    Time Temperature Precipitation Wind Pressure Humidity
    00:00 +18°C° 0 mm 4 mps 762 mmHg 82%
    01:00 +18°C° 0 mm 3 mps 761 mmHg 84%
    02:00 +18°C° 0 mm 2 mps 761 mmHg 86%
    03:00 +18°C° 0 mm 2 mps 761 mmHg 87%
    04:00 +18°C° 0 mm 2 mps 761 mmHg 88%
    05:00 +18°C° 0 mm 2 mps 761 mmHg 89%
    06:00 +20°C° 0 mm 2 mps 761 mmHg 79%
    07:00 +24°C° 0 mm 2 mps 761 mmHg 69%
    08:00 +26°C° 0 mm 3 mps 761 mmHg 59%
    09:00 +28°C° 0 mm 3 mps 761 mmHg 53%
    10:00 +30°C° 0 mm 3 mps 761 mmHg 47%
    11:00 +32°C° 0 mm 4 mps 761 mmHg 41%
    12:00 +33°C° 0 mm 4 mps 761 mmHg 40%
    13:00 +33°C° 0 mm 4 mps 760 mmHg 39%
    14:00 +33°C° 0 mm 5 mps 760 mmHg 38%
    15:00 +32°C° 0 mm 5 mps 760 mmHg 42%
    16:00 +30°C° 0 mm 5 mps 760 mmHg 46%
    17:00 +28°C° 0 mm 5 mps 759 mmHg 50%
    18:00 +26°C° 0 mm 5 mps 760 mmHg 59%
    19:00 +23°C° 0 mm 6 mps 760 mmHg 69%
    20:00 +21°C° 0 mm 6 mps 760 mmHg 79%
    21:00 +21°C° 0 mm 5 mps 760 mmHg 81%
    22:00 +20°C° 0 mm 4 mps 760 mmHg 83%
    23:00 +20°C° 0 mm 3 mps 760 mmHg 85%

    Day after tomorrow, 23 July, Tuesday

    Time Temperature Precipitation Wind Pressure Humidity
    00:00 +20°C° 0 mm 3 mps 760 mmHg 86%
    01:00 +20°C° 0 mm 3 mps 760 mmHg 86%
    02:00 +20°C° 0 mm 3 mps 759 mmHg 86%
    03:00 +19°C° 0 mm 3 mps 759 mmHg 86%
    04:00 +19°C° 0 mm 3 mps 759 mmHg 87%
    05:00 +19°C° 0 mm 3 mps 759 mmHg 88%
    06:00 +21°C° 0 mm 3 mps 759 mmHg 79%
    07:00 +22°C° 0 mm 3 mps 759 mmHg 71%
    08:00 +25°C° 0 mm 3 mps 760 mmHg 63%
    09:00 +27°C° 0 mm 4 mps 760 mmHg 57%
    10:00 +29°C° 0 mm 4 mps 760 mmHg 51%
    11:00 +32°C° 0 mm 4 mps 760 mmHg 45%
    12:00 +32°C° 0 mm 5 mps 760 mmHg 44%
    13:00 +32°C° 0 mm 6 mps 759 mmHg 43%
    14:00 +32°C° 0 mm 6 mps 759 mmHg 41%
    15:00 +30°C° 0 mm 6 mps 759 mmHg 44%
    16:00 +29°C° 0 mm 7 mps 759 mmHg 46%
    17:00 +28°C° 0 mm 7 mps 759 mmHg 48%
    18:00 +26°C° 0 mm 6 mps 759 mmHg 54%
    19:00 +23°C° 0 mm 6 mps 759 mmHg 60%
    20:00 +22°C° 0 mm 5 mps 759 mmHg 67%
    21:00 +21°C° 0 mm 5 mps 759 mmHg 70%
    22:00 +21°C° 0 mm 4 mps 759 mmHg 72%
    23:00 +20°C° 0 mm 3 mps 759 mmHg 75%

    24 July, Wednesday

    Time Temperature Precipitation Wind Pressure Humidity
    00:00 +20°C° 0 mm 3 mps 758 mmHg 76%
    01:00 +19°C° 0 mm 2 mps 758 mmHg 77%
    02:00 +19°C° 0 mm 2 mps 758 mmHg 78%
    03:00 +19°C° 0 mm 2 mps 758 mmHg 78%
    04:00 +19°C° 0 mm 2 mps 758 mmHg 78%
    05:00 +19°C° 0 mm 2 mps 758 mmHg 78%
    06:00 +21°C° 0 mm 2 mps 758 mmHg 68%
    07:00 +24°C° 0 mm 2 mps 758 mmHg 57%
    08:00 +27°C° 0 mm 2 mps 758 mmHg 47%
    09:00 +29°C° 0 mm 2 mps 758 mmHg 42%
    10:00 +31°C° 0 mm 3 mps 757 mmHg 36%
    11:00 +34°C° 0 mm 3 mps 757 mmHg 31%
    12:00 +33°C° 0 mm 4 mps 757 mmHg 31%
    13:00 +33°C° 0 mm 4 mps 757 mmHg 31%
    14:00 +33°C° 0 mm 5 mps 756 mmHg 31%
    15:00 +30°C° 0 mm 5 mps 756 mmHg 40%
    16:00 +28°C° 0 mm 5 mps 757 mmHg 48%
    17:00 +26°C° 0 mm 5 mps 757 mmHg 56%
    18:00 +25°C° 0 mm 4 mps 757 mmHg 65%
    19:00 +23°C° 0 mm 4 mps 757 mmHg 75%
    20:00 +21°C° 0 mm 3 mps 758 mmHg 84%
    21:00 +21°C° 0 mm 2 mps 758 mmHg 87%
    22:00 +21°C° 0 mm 2 mps 758 mmHg 89%
    23:00 +22°C° 0 mm 1 mps 758 mmHg 91%

    25 July, Thursday

    Time Temperature Precipitation Wind Pressure Humidity
    00:00 +22°C° 0 mm 1 mps 758 mmHg 91%
    01:00 +22°C° 0 mm 1 mps 758 mmHg 92%
    02:00 +22°C° 0 mm 1 mps 758 mmHg 92%
    03:00 +22°C° 0 mm 1 mps 758 mmHg 92%
    04:00 +22°C° 0 mm 1 mps 758 mmHg 92%
    05:00 +22°C° 0 mm 1 mps 758 mmHg 92%
    06:00 +23°C° 0 mm 1 mps 758 mmHg 84%
    07:00 +25°C° 0 mm 1 mps 759 mmHg 75%
    08:00 +26°C° 0 mm 2 mps 759 mmHg 67%
    09:00 +27°C° 0 mm 2 mps 759 mmHg 65%
    10:00 +28°C° 0 mm 3 mps 759 mmHg 63%
    11:00 +29°C° 0 mm 3 mps 759 mmHg 61%
    12:00 +28°C° 0 mm 4 mps 759 mmHg 59%
    13:00 +28°C° 0 mm 6 mps 759 mmHg 58%
    14:00 +28°C° 0 mm 7 mps 759 mmHg 56%
    15:00 +27°C° 0 mm 7 mps 759 mmHg 55%
    16:00 +27°C° 0 mm 7 mps 760 mmHg 55%
    17:00 +26°C° 0 mm 7 mps 760 mmHg 54%
    18:00 +23°C° 0 mm 6 mps 760 mmHg 60%
    19:00 +22°C° 0 mm 6 mps 761 mmHg 66%
    20:00 +20°C° 0 mm 5 mps 761 mmHg 72%
    21:00 +20°C° 0 mm 5 mps 762 mmHg 74%
    22:00 +19°C° 0 mm 5 mps 762 mmHg 77%
    23:00 +19°C° 0 mm 5 mps 762 mmHg 80%

    26 July, Friday

    Time Temperature Precipitation Wind Pressure Humidity
    00:00 +19°C° 0 mm 5 mps 762 mmHg 81%
    01:00 +17°C° 0 mm 5 mps 761 mmHg 83%
    02:00 +17°C° 0 mm 5 mps 761 mmHg 85%
    03:00 +17°C° 0 mm 5 mps 761 mmHg 84%
    04:00 +17°C° 0 mm 6 mps 762 mmHg 83%
    05:00 +17°C° 0 mm 6 mps 762 mmHg 82%
    06:00 +19°C° 0 mm 6 mps 762 mmHg 72%
    07:00 +21°C° 0 mm 6 mps 763 mmHg 63%
    08:00 +23°C° 0 mm 7 mps 763 mmHg 53%
    09:00 +24°C° 0 mm 8 mps 763 mmHg 48%
    10:00 +26°C° 0 mm 8 mps 763 mmHg 42%
    11:00 +27°C° 0 mm 9 mps 763 mmHg 37%
    12:00 +27°C° 0 mm 9 mps 762 mmHg 38%
    13:00 +27°C° 0 mm 9 mps 762 mmHg 39%
    14:00 +27°C° 0 mm 9 mps 762 mmHg 41%
    15:00 +26°C° 0 mm 9 mps 762 mmHg 45%
    16:00 +24°C° 0 mm 10 mps 762 mmHg 48%
    17:00 +22°C° 0 mm 10 mps 762 mmHg 52%
    18:00 +21°C° 0 mm 9 mps 762 mmHg 58%
    19:00 +19°C° 0 mm 9 mps 763 mmHg 64%
    20:00 +18°C° 0 mm 9 mps 763 mmHg 70%
    21:00 +17°C° 0 mm 8 mps 763 mmHg 72%
    22:00 +17°C° 0 mm 8 mps 763 mmHg 74%
    23:00 +17°C° 0 mm 8 mps 763 mmHg 75%
    Show more